Location: Unspecified
(43.4354°N, 0.0000°E)
Time: 21:47:48
(UTC+00:00)

Tiros 1 despin weight - Pass Details

Date: 26 June 2019
Orbit: 594 x 642 km, 48.2° (Epoch: 17 July)

Event Time Altitude Azimuth Distance (km) Brightness Sun altitude
Rises 21:42:32 0° 239° (WSW) 2,867 ? -15.8°
Reaches altitude 10° 21:44:50 10° 237° (WSW) 1,956 ? -16.1°
Maximum altitude 21:49:19 76° 152° (SSE) 624 ? -16.5°
Drops below altitude 10° 21:53:46 10° 67° (ENE) 1,939 ? -16.9°
Sets 21:56:03 0° 66° (ENE) 2,838 ? -17.1°
